{"data":{"norad_id":64069,"intl_designator":"2025-107F","name":"STARLINK-11649 [DTC]","alt_names":[],"object_type":"PAYLOAD","status":"ACTIVE","operator":null,"country":"US","launch_date":"2025-05-21","launch_site_code":"AFETR","launch_vehicle":null,"mission":null,"orbit_class":"UNKNOWN","rcs_meters":null,"size_class":null,"mass_kg":null,"dimensions":null,"purposes":["comms"],"wikipedia_slug":null,"has_3d_model":false,"image_url":null,"decayed_at":null,"tle_current":{"epoch":"2026-09-20T14:06:15.877728Z","epoch_age_seconds":136102,"freshness":"FRESH","line1":"1 64069U 25107F   26263.58768377  .00121734  00000+0  93474-3 0  9997","line2":"2 64069  42.9982   4.0594 0000800 220.4915 139.5893 15.70932408 77948","mean_motion":15.70932408,"eccentricity":8.0e-5,"inclination_deg":42.9982,"raan_deg":4.0594,"arg_perigee_deg":220.4915,"mean_anomaly_deg":139.5893,"bstar":0.00093474,"rev_number":7794,"period_min":91.665306073436,"perigee_km":355.69220572084,"apogee_km":356.76970459367,"semimajor_km":6734.3679551573,"source":"CELESTRAK","updated_at":"2026-09-21T09:00:35.192540Z"}}}